Simultaneous Nadir Overpasses (SNOs) Predictions

Prediction of SNOs between AQUA and METOP-B Satellite Orbit:

Table of predicted SNOs for the next 14.0 days since TLE Epoch: 11/16/2019
Index Date (AQUA) Time (AQUA) Lat,Lon (AQUA) SZA (AQUA ) Date (METOP-B) Time (METOP-B) Lat,Lon (METOP-B) SZA (METOP-B ) Distance(km) Time Diff (sec)
1 11/18/2019 20:08:43 73.59,-127.50 92.80 11/18/2019 20:07:31 73.54,-128.32 92.77 26.28 72
2 11/18/2019 20:58:13 -73.80, 39.68 86.98 11/18/2019 20:58:07 -73.83, 39.68 86.95 2.78 6
3 11/18/2019 21:47:42 73.90,-152.89 93.13 11/18/2019 21:48:46 73.87,-152.88 93.11 2.97 64
4 11/21/2019 15:43:01 73.75, -61.41 93.61 11/21/2019 15:41:51 73.73, -61.47 93.59 3.26 70
5 11/21/2019 16:32:28 -73.81, 106.11 86.33 11/21/2019 16:32:31 -73.81, 106.06 86.32 1.86 3
6 11/21/2019 17:21:57 73.90, -86.46 93.78 11/21/2019 17:23:09 73.91, -86.38 93.78 2.50 72
7 11/24/2019 11:17:16 73.76, 5.01 94.22 11/24/2019 11:16:14 73.76, 5.02 94.22 0.21 62
8 11/24/2019 12:06:43 -73.82, 172.52 85.72 11/24/2019 12:06:54 -73.84, 172.55 85.69 2.98 11
9 11/24/2019 12:56:17 74.17, -20.64 94.66 11/24/2019 12:57:27 74.19, -19.28 94.65 41.15 70
10 11/27/2019 06:51:30 73.78, 71.41 94.78 11/27/2019 06:50:36 73.79, 71.50 94.80 3.05 54
11 11/27/2019 07:40:57 -73.84,-121.08 85.15 11/27/2019 07:41:17 -73.83,-121.09 85.17 1.51 20
12 11/27/2019 08:30:38 74.55, 44.90 95.60 11/27/2019 08:31:43 74.51, 47.96 95.52 91.02 65
13 11/30/2019 02:25:44 73.75, 137.90 95.25 11/30/2019 02:25:00 73.77, 137.86 95.27 2.19 44
14 11/30/2019 03:15:12 -73.87, -54.71 84.63 11/30/2019 03:15:40 -73.85, -54.61 84.64 3.27 28




NCC Satellite Simultaneous Nadir Overpasses (SNOs) Prediction Service
